[Iaude] MPEC R125: 2023 RZ3 [a=1.50,e=0.51,i=24.5,H=25.6]
    mpec at marsden.cfa.harvard.edu 
    mpec at marsden.cfa.harvard.edu
       
    Mon Sep 11 06:57:25 EDT 2023
    
    
  
M.P.E.C. 2023-R125                           Issued 2023 September 11, 10:56 UT
     The Minor Planet Electronic Circulars contain information on unusual
         minor planets, routine data on comets and natural satellites,
         and occasional editorial announcements.  They are published
    on behalf of Division F of the International Astronomical Union by the
          Minor Planet Center, Smithsonian Astrophysical Observatory,
                          Cambridge, MA 02138, U.S.A.
			  
             Prepared using the Tamkin Foundation Computer Network
                              MPC at CFA.HARVARD.EDU
            URL https://www.minorplanetcenter.net/    ISSN 1523-6714
                                    2023 RZ3                                    
Observations:
     K23R03Z  C2023 09 09.44699823 59 46.859+07 43 31.26         20.32GVER125F52
     K23R03Z  C2023 09 09.45667123 59 31.378+07 46 05.73         20.94GVER125F52
     K23R03Z  C2023 09 09.46638523 59 15.855+07 48 40.54         19.95GVER125F52
     K23R03Z  C2023 09 09.47610523 59 00.372+07 51 14.82         20.22GVER125F52
     K23R03Z*KC2023 09 10.01528 23 46 16.18 +10 00 23.6          20.0 GXER125L51
     K23R03Z KC2023 09 10.01686 23 46 13.94 +10 00 45.5          20.4 GXER125L51
     K23R03Z KC2023 09 10.01844 23 46 11.87 +10 01 06.6          20.0 GXER125L51
     K23R03Z 1C2023 09 10.06417 23 45 13.63 +10 10 53.9          20.2 VXER125033
     K23R03Z 1C2023 09 10.06481 23 45 12.79 +10 11 02.1          20.4 VXER125033
     K23R03Z 1C2023 09 10.06549 23 45 11.90 +10 11 11.0          20.6 VXER125033
     K23R03Z 1C2023 09 10.06626 23 45 10.87 +10 11 20.9          20.8 VXER125033
     K23R03Z bC2023 09 10.12853623 43 48.77 +10 24 48.8          20.2 GVER125L01
     K23R03Z bC2023 09 10.12915423 43 48.00 +10 24 56.6          20.4 GVER125L01
     K23R03Z bC2023 09 10.12977323 43 47.19 +10 25 03.8          20.3 GVER125L01
     K23R03Z KC2023 09 10.15986623 43 22.264+10 31 50.99         21.56GVER125I52
     K23R03Z KC2023 09 10.16079623 43 21.083+10 32 02.04         20.96GVER125I52
     K23R03Z KC2023 09 10.16172223 43 19.913+10 32 13.42         20.25GVER125I52
     K23R03Z KC2023 09 10.16265123 43 18.728+10 32 24.86         20.46GVER125I52
     K23R03Z pC2023 09 10.84076423 30 20.43 +12 39 42.7          20.9 GVER125L01
     K23R03Z pC2023 09 10.84298623 30 18.12 +12 40 04.4          21.0 GVER125L01
     K23R03Z pC2023 09 10.84520723 30 15.75 +12 40 26.9          21.1 GVER125L01
     K23R03Z KC2023 09 10.86534 23 29 52.11 +12 43 56.9          20.3 GXER125L51
     K23R03Z KC2023 09 10.86992 23 29 47.22 +12 44 43.2          20.2 GXER125L51
     K23R03Z KC2023 09 10.87464 23 29 42.15 +12 45 30.3          20.4 GXER125L51
     K23R03Z 1C2023 09 11.00809 23 27 23.88 +13 07 05.6          19.8 VXER125033
     K23R03Z 1C2023 09 11.00907 23 27 22.88 +13 07 14.8          19.6 VXER125033
     K23R03Z 1C2023 09 11.01005 23 27 21.86 +13 07 24.3          19.7 VXER125033
     K23R03Z KC2023 09 11.16388523 24 56.10 +13 31 43.9          20.7 VuER125H21
     K23R03Z KC2023 09 11.16948523 24 50.51 +13 32 35.1          20.9 VuER125H21
     K23R03Z KC2023 09 11.17228423 24 47.72 +13 33 00.8          20.6 VuER125H21
Observer details:
033 Karl Schwarzschild Observatory, Tautenburg.  Observers S. Melnikov, C.
    Hoegner, F. Ludwig, M. Hartmann, B. Stecklum.  Measurer B. Stecklum.
    1.34-m f/3 Schmidt + CCD.
F52 Pan-STARRS 2, Haleakala.  Observers J. Bulger, K. Chambers, T. Dukes, T.
    Lowe, P. Minguez, A. Schultz, I. Smith.  Measurers S. Chastel, J.
    Fairlamb, M. Huber, Y. Ramanjooloo, R. Wainscoat, R. Weryk.  1.8-m
    Ritchey-Chretien + CCD.
H21 Astronomical Research Observatory, Westfield.  Observer R. Holmes.
    Measurers T. Linder, R. Holmes, L. Horn.  0.76-m f/3.0 astrograph + CCD.
I52 Steward Observatory, Mt. Lemmon Station.  Observer J. B. Fazekas.
    Measurers E. J. Christensen, D. Fay, J. B. Fazekas, D. C. Fuls, A. R.
    Gibbs, A. D. Grauer, H. Groeller, J. K. Hogan, R. A. Kowalski, S. M.
    Larson, G. J. Leonard, D. Rankin, R. L. Seaman, A. Serrano, F. C. Shelly,
    K. W. Wierzchos.  1.0-m prime focus + CCD.
L01 Visnjan Observatory, Tican.  Observers K. Korlevic, I. Lyon.  Measurer K.
    Korlevic.  1.0-m f/2.9 reflector + CCD.
L51 MARGO, Nauchnyi.  Observer G. Borisov.  0.50-m f/1.9 reflector + CCD.
Orbital elements:
2023 RZ3                                                 Earth MOID = 0.0276 AU
Epoch 2023 Sept. 13.0 TT = JDT 2460200.5                Veres                   
M  32.68064              (2000.0)            P               Q                  
n   0.53508159     Peri.  275.98376     -0.11404692     +0.98854243             
a   1.5026438      Node   346.23200     -0.66454648     -0.14989255             
e   0.5133184      Incl.   24.54930     -0.73849257     -0.01777900             
P   1.84           H   25.68          G   0.15           U   8                  
Residuals in seconds of arc
230909 F52  0.0   0.0     230910 033  0.2-  0.0     230910 L01  0.5+  0.7-
230909 F52  0.1+  0.1-    230910 L01  0.1+  0.4+    230910 L51  1.3-  0.4+
230909 F52  0.0   0.0     230910 L01  0.5+  0.4+    230910 L51  0.8-  0.6+
230909 F52  0.1-  0.1+    230910 L01  0.3+  0.2-    230910 L51  0.8-  0.3+
230910 L51  0.0   0.9-    230910 I52  0.3-  0.9+    230911 033  0.0   0.2-
230910 L51  1.7-  0.2+    230910 I52  0.1-  0.1+    230911 033  0.2+  0.3-
230910 L51  0.9-  0.5+    230910 I52  0.2+  0.3-    230911 033  0.1+  0.2-
230910 033  0.3-  0.1+    230910 I52  0.3+  0.7-    230911 H21  0.2+  0.3+
230910 033  0.2-  0.0     230910 L01  0.7-  0.4+    230911 H21  0.0   0.0
230910 033  0.1-  0.1+    230910 L01  0.3+  0.5-    230911 H21  0.0   0.0
Ephemeris:
2023 RZ3                 a,e,i = 1.50, 0.51, 25                  q = 0.7313
Date    TT    R. A. (2000) Decl.     Delta      r    Elong.  Phase     V
2023 08 12    09 05 23.6 -28 41 31   0.2760  0.8378    44.1   122.6    27.5
...
2023 08 27    08 12 07.8 -33 48 22   0.1129  0.9480    53.6   120.8    25.7
...
2023 09 04    04 44 57.7 -32 15 08   0.04003 1.0129    94.9    82.8    21.6
...
2023 09 10    23 46 41.0 +09 58 19   0.05820 1.0628   162.4    16.7    20.5
2023 09 11    23 27 34.0 +13 07 00   0.06744 1.0712   161.7    17.1    20.9
2023 09 12    23 12 50.1 +15 24 57   0.07720 1.0796   160.1    18.5    21.2
...
2023 09 18    22 28 28.5 +21 28 55   0.1409  1.1299   150.6    25.9    22.9
...
2023 09 26    22 09 40.5 +23 28 37   0.2316  1.1967   143.4    30.0    24.2
...
2023 10 11    22 04 38.4 +23 46 58   0.4127  1.3190   134.0    33.0    25.7
M. P. C. Staff               (C) Copyright 2023 MPC           M.P.E.C. 2023-R125
    
    
More information about the Iaude
mailing list